• In Germany
  • List of Countries
  • For 7 days
  • Water Temperature
  • Satellite Maps
  • Weather Map
  • Weather Widgets
  • user-avatar
    Login

    Hourly Weather Malbun

    Today, 18 July, Wednesday

    Time Temperature Precipitation Wind Pressure Humidity
    00:00 +9°C° 0 mm 2 mps 634 mmHg 84%
    01:00 +8°C° 0 mm 2 mps 634 mmHg 84%
    02:00 +8°C° 0 mm 2 mps 634 mmHg 85%
    03:00 +8°C° 0 mm 2 mps 634 mmHg 85%
    04:00 +8°C° 0 mm 2 mps 633 mmHg 86%
    05:00 +10°C° 0 mm 1 mps 634 mmHg 81%
    06:00 +12°C° 0 mm 1 mps 634 mmHg 77%
    07:00 +13°C° 0 mm 1 mps 635 mmHg 73%
    08:00 +15°C° 0 mm 1 mps 635 mmHg 65%
    09:00 +18°C° 0 mm 1 mps 636 mmHg 57%
    10:00 +20°C° 0 mm 1 mps 636 mmHg 48%
    11:00 +20°C° 0 mm 2 mps 636 mmHg 46%
    12:00 +21°C° 0 mm 2 mps 636 mmHg 43%
    13:00 +21°C° 0 mm 2 mps 637 mmHg 40%
    14:00 +21°C° 0 mm 2 mps 636 mmHg 42%
    15:00 +21°C° 0 mm 2 mps 636 mmHg 43%
    16:00 +21°C° 0 mm 3 mps 636 mmHg 45%
    17:00 +20°C° 0 mm 2 mps 636 mmHg 53%
    18:00 +18°C° 0 mm 2 mps 635 mmHg 62%
    19:00 +17°C° 0 mm 2 mps 635 mmHg 71%
    20:00 +15°C° 0 mm 2 mps 635 mmHg 78%
    21:00 +13°C° 0 mm 2 mps 634 mmHg 85%
    22:00 +11°C° 0 mm 1 mps 634 mmHg 92%
    23:00 +11°C° 0 mm 1 mps 634 mmHg 92%

    Tomorrow, 19 July, Thursday

    Time Temperature Precipitation Wind Pressure Humidity
    00:00 +11°C° 0 mm 1 mps 634 mmHg 92%
    01:00 +10°C° 0 mm 1 mps 634 mmHg 92%
    02:00 +10°C° 0 mm 1 mps 634 mmHg 91%
    03:00 +10°C° 0 mm 1 mps 634 mmHg 89%
    04:00 +10°C° 0 mm 1 mps 633 mmHg 88%
    05:00 +11°C° 0 mm 1 mps 634 mmHg 82%
    06:00 +12°C° 0 mm 1 mps 634 mmHg 76%
    07:00 +14°C° 0 mm 1 mps 635 mmHg 69%
    08:00 +16°C° 0 mm 1 mps 635 mmHg 62%
    09:00 +18°C° 0 mm 1 mps 636 mmHg 55%
    10:00 +19°C° 0 mm 2 mps 637 mmHg 48%
    11:00 +20°C° 0 mm 2 mps 637 mmHg 46%
    12:00 +21°C° 0 mm 2 mps 637 mmHg 44%
    13:00 +23°C° 0 mm 2 mps 637 mmHg 42%
    14:00 +23°C° 0 mm 2 mps 637 mmHg 43%
    15:00 +23°C° 0 mm 2 mps 637 mmHg 45%
    16:00 +21°C° 0 mm 2 mps 636 mmHg 46%
    17:00 +20°C° 0.1 mm 2 mps 636 mmHg 55%
    18:00 +19°C° 0.1 mm 2 mps 636 mmHg 63%
    19:00 +17°C° 0.1 mm 2 mps 635 mmHg 72%
    20:00 +16°C° 0 mm 2 mps 635 mmHg 78%
    21:00 +14°C° 0 mm 1 mps 635 mmHg 84%
    22:00 +12°C° 0 mm 1 mps 634 mmHg 90%
    23:00 +12°C° 0 mm 1 mps 634 mmHg 89%

    Day after tomorrow, 20 July, Friday

    Time Temperature Precipitation Wind Pressure Humidity
    00:00 +11°C° 0 mm 1 mps 634 mmHg 88%
    01:00 +11°C° 0 mm 1 mps 634 mmHg 87%
    02:00 +11°C° 0 mm 1 mps 634 mmHg 86%
    03:00 +11°C° 0 mm 1 mps 633 mmHg 85%
    04:00 +11°C° 0 mm 1 mps 633 mmHg 84%
    05:00 +13°C° 0 mm 1 mps 634 mmHg 79%
    06:00 +14°C° 0 mm 1 mps 634 mmHg 75%
    07:00 +16°C° 0 mm 1 mps 634 mmHg 71%
    08:00 +19°C° 0.1 mm 1 mps 635 mmHg 64%
    09:00 +20°C° 0.1 mm 1 mps 635 mmHg 57%
    10:00 +22°C° 0.1 mm 1 mps 636 mmHg 49%
    11:00 +23°C° 0.3 mm 1 mps 636 mmHg 49%
    12:00 +23°C° 0.3 mm 2 mps 636 mmHg 48%
    13:00 +23°C° 0.3 mm 2 mps 635 mmHg 47%
    14:00 +22°C° 1 mm 1 mps 635 mmHg 55%
    15:00 +21°C° 1 mm 1 mps 634 mmHg 63%
    16:00 +20°C° 1 mm 1 mps 634 mmHg 70%
    17:00 +19°C° 0.8 mm 1 mps 633 mmHg 75%
    18:00 +18°C° 0.8 mm 1 mps 633 mmHg 79%
    19:00 +16°C° 0.8 mm 2 mps 632 mmHg 83%
    20:00 +15°C° 0.2 mm 2 mps 632 mmHg 84%
    21:00 +14°C° 0.2 mm 2 mps 632 mmHg 86%
    22:00 +13°C° 0.2 mm 2 mps 632 mmHg 87%
    23:00 +13°C° 1.7 mm 2 mps 632 mmHg 90%

    21 July, Saturday

    Time Temperature Precipitation Wind Pressure Humidity
    00:00 +13°C° 1.7 mm 2 mps 632 mmHg 92%
    01:00 +13°C° 1.7 mm 2 mps 632 mmHg 95%
    02:00 +12°C° 0.9 mm 1 mps 631 mmHg 95%
    03:00 +12°C° 0.9 mm 1 mps 631 mmHg 95%
    04:00 +12°C° 0.9 mm 1 mps 631 mmHg 95%
    05:00 +12°C° 0.4 mm 1 mps 631 mmHg 94%
    06:00 +13°C° 0.4 mm 1 mps 631 mmHg 93%
    07:00 +13°C° 0.4 mm 1 mps 631 mmHg 92%
    08:00 +14°C° 0.2 mm 1 mps 632 mmHg 85%
    09:00 +15°C° 0.2 mm 1 mps 632 mmHg 79%
    10:00 +16°C° 0.2 mm 2 mps 632 mmHg 72%
    11:00 +16°C° 0.5 mm 2 mps 632 mmHg 72%
    12:00 +16°C° 0.5 mm 2 mps 632 mmHg 72%
    13:00 +17°C° 0.5 mm 2 mps 632 mmHg 72%
    14:00 +16°C° 0.6 mm 2 mps 632 mmHg 74%
    15:00 +16°C° 0.6 mm 2 mps 632 mmHg 76%
    16:00 +16°C° 0.6 mm 2 mps 632 mmHg 77%
    17:00 +15°C° 0.8 mm 2 mps 632 mmHg 82%
    18:00 +15°C° 0.8 mm 2 mps 632 mmHg 87%
    19:00 +14°C° 0.8 mm 2 mps 632 mmHg 92%
    20:00 +13°C° 0.3 mm 2 mps 632 mmHg 93%
    21:00 +12°C° 0.3 mm 2 mps 632 mmHg 95%
    22:00 +11°C° 0.3 mm 1 mps 631 mmHg 96%
    23:00 +11°C° 0.2 mm 1 mps 631 mmHg 96%

    22 July, Sunday

    Time Temperature Precipitation Wind Pressure Humidity
    00:00 +10°C° 0.2 mm 2 mps 631 mmHg 96%
    01:00 +9°C° 0.2 mm 2 mps 631 mmHg 97%
    02:00 +9°C° 0.2 mm 2 mps 631 mmHg 97%
    03:00 +9°C° 0.2 mm 2 mps 631 mmHg 97%
    04:00 +9°C° 0.2 mm 2 mps 631 mmHg 97%
    05:00 +10°C° 0.1 mm 2 mps 631 mmHg 97%
    06:00 +10°C° 0.1 mm 2 mps 631 mmHg 96%
    07:00 +10°C° 0.1 mm 2 mps 631 mmHg 95%
    08:00 +12°C° 0.1 mm 2 mps 632 mmHg 90%
    09:00 +12°C° 0.1 mm 3 mps 632 mmHg 86%
    10:00 +13°C° 0.1 mm 3 mps 632 mmHg 81%
    11:00 +13°C° 0.2 mm 3 mps 632 mmHg 77%
    12:00 +14°C° 0.2 mm 3 mps 633 mmHg 72%
    13:00 +16°C° 0.2 mm 3 mps 633 mmHg 68%
    14:00 +16°C° 0.2 mm 3 mps 633 mmHg 69%
    15:00 +16°C° 0.2 mm 3 mps 633 mmHg 71%
    16:00 +16°C° 0.2 mm 2 mps 633 mmHg 72%
    17:00 +15°C° 0.5 mm 2 mps 633 mmHg 78%
    18:00 +14°C° 0.5 mm 2 mps 633 mmHg 85%
    19:00 +13°C° 0.5 mm 2 mps 633 mmHg 91%
    20:00 +13°C° 0.6 mm 2 mps 633 mmHg 93%
    21:00 +12°C° 0.6 mm 1 mps 633 mmHg 94%
    22:00 +12°C° 0.6 mm 1 mps 633 mmHg 96%
    23:00 +11°C° 0.3 mm 1 mps 633 mmHg 97%

    23 July, Monday

    Time Temperature Precipitation Wind Pressure Humidity
    00:00 +11°C° 0.3 mm 1 mps 633 mmHg 97%
    01:00 +11°C° 0.3 mm 1 mps 633 mmHg 97%
    02:00 +11°C° 0 mm 1 mps 633 mmHg 97%
    03:00 +10°C° 0 mm 1 mps 633 mmHg 97%
    04:00 +10°C° 0 mm 1 mps 633 mmHg 97%
    05:00 +11°C° 0 mm 1 mps 633 mmHg 96%
    06:00 +11°C° 0 mm 1 mps 633 mmHg 94%
    07:00 +12°C° 0 mm 1 mps 634 mmHg 93%
    08:00 +13°C° 0 mm 1 mps 634 mmHg 84%
    09:00 +15°C° 0 mm 2 mps 634 mmHg 76%
    10:00 +16°C° 0 mm 2 mps 635 mmHg 68%
    11:00 +17°C° 0 mm 2 mps 635 mmHg 64%
    12:00 +18°C° 0 mm 2 mps 635 mmHg 61%
    13:00 +19°C° 0 mm 2 mps 635 mmHg 57%
    14:00 +19°C° 0 mm 2 mps 635 mmHg 58%
    15:00 +19°C° 0 mm 3 mps 635 mmHg 58%
    16:00 +19°C° 0 mm 3 mps 634 mmHg 58%
    17:00 +18°C° 0 mm 2 mps 634 mmHg 65%
    18:00 +17°C° 0 mm 2 mps 634 mmHg 72%
    19:00 +16°C° 0 mm 2 mps 634 mmHg 78%
    20:00 +15°C° 0 mm 2 mps 633 mmHg 84%
    21:00 +13°C° 0 mm 1 mps 633 mmHg 89%
    22:00 +11°C° 0 mm 1 mps 633 mmHg 94%
    23:00 +11°C° 0 mm 1 mps 632 mmHg 93%
    Show more